sat.trackr.live / text

‹ back to catalog

STARLINK-6264

NORAD 56429 · 2023-061BH

PAYLOAD ACTIVE UNKNOWN

§ Identity

Operator
Country
US
Launch date
2023-05-04
Launch site
AFETR
Launch vehicle
Mass (kg)
RCS (m²)

Purposes: comms

External: N2YO · Heavens-Above · Gunter

§ Orbital elements

Epoch: 2026-05-25T04:10:28.327872Z

Period
94.27 min
Inclination
43.0036°
Eccentricity
0.0001437
Mean motion
15.27574165 rev/d
Perigee alt
482.1 km
Apogee alt
484.1 km
Semi-major
6,861.2 km
B*
2.3053e-5
RAAN
107.8859°
Arg perigee
264.2393°
Mean anomaly
95.8295°
Rev number
16,865

§ Raw data

STARLINK-62641 56429U 23061BH  26145.17393898  .00000372  00000+0  23053-4 0  99922 56429  43.0036 107.8859 0001437 264.2393  95.8295 15.27574165168653

JSON: /api/v1/satellites/56429 · /tle

For live sub-satellite position, see the globe view (requires WebGL).

§ Visibility from observer

Set your observer location to see the next 7 days of passes ≥ 10°. The values pass through the URL so the page stays shareable.

No JS? Fill the form by hand. The geolocation button needs JavaScript.